GEFSGL_500_meanwind_366.txt.gz
Wind_Speed
46 47 48 49 50 50 50 50 52 53 54 55 56 56 57 57 58 58 59 59 59 59 59 59 59 59 59 59 59 59 59 60 60 57 57 56 57 57 57 58 57 57 57
46 47 48 48 49 50 51 51 52 53 54 55 55 55 56 57 58 59 59 59 59 59 59 60 60 60 59 59 59 59 59 60 60 59 58 58 57 57 57 58 58 58 58
47 48 48 49 49 50 50 51 53 53 54 55 55 55 56 57 57 57 58 59 59 59 59 60 61 60 60 60 59 59 59 60 60 60 59 58 58 58 59 59 59 59 59
47 48 48 48 49 50 50 51 52 53 54 55 55 55 56 56 56 56 57 58 59 59 59 59 60 60 60 60 60 59 59 60 60 59 59 60 60 60 60 60 61 60 60
46 47 48 48 49 50 51 51 52 53 53 54 54 54 55 55 55 55 55 56 57 58 58 58 58 59 60 61 60 60 60 60 60 60 60 60 60 61 62 62 63 63 62
46 47 47 48 49 50 50 51 52 53 53 54 54 54 53 54 55 56 56 56 57 57 58 58 58 58 59 60 60 60 60 61 61 62 62 62 61 62 62 62 63 63 63
46 47 47 47 48 49 49 50 51 52 53 53 53 54 54 54 55 56 56 57 56 57 58 58 58 58 60 60 60 60 61 61 61 62 62 63 63 63 64 63 63 63 62
45 45 46 46 47 47 48 49 50 51 52 52 53 54 54 53 54 54 56 57 56 57 58 58 58 59 60 60 61 61 61 61 62 63 63 63 63 63 64 64 64 64 63
45 46 46 46 46 47 48 48 49 50 52 52 52 52 53 54 55 54 55 56 56 56 57 59 59 60 60 61 61 61 61 61 62 62 62 62 62 62 63 64 64 65 64
45 46 46 46 46 47 48 48 49 49 51 52 52 52 52 53 54 55 55 56 56 56 57 57 58 59 60 62 62 61 61 61 62 62 62 61 61 62 62 63 63 64 64
46 46 46 46 46 47 47 48 48 49 50 51 52 52 51 52 53 55 55 55 56 56 57 57 57 57 58 60 61 62 62 62 61 61 61 61 61 61 61 62 62 63 63
46 46 47 47 47 47 48 48 48 48 49 50 51 51 51 51 52 53 54 54 55 56 57 57 57 58 58 59 59 60 60 61 61 61 60 60 60 60 60 61 61 61 61
47 47 47 47 47 47 47 48 48 49 49 50 51 51 52 51 51 52 52 53 54 55 55 56 57 57 58 58 58 58 58 59 59 60 60 59 59 60 60 60 60 60 60
47 47 47 47 47 48 48 48 49 49 50 50 51 51 52 52 52 51 52 53 54 54 55 55 56 56 56 57 56 56 57 57 58 58 59 59 59 59 59 60 60 59 59
47 47 47 47 47 48 48 48 49 49 49 50 50 51 52 53 53 53 53 53 53 54 54 55 55 54 54 55 55 55 55 55 56 57 57 57 57 58 58 59 59 59 59
46 46 46 46 46 47 47 48 48 48 49 50 50 51 52 52 53 54 54 54 53 53 53 53 52 52 53 53 53 53 53 53 54 55 55 55 55 55 55 56 57 56 56
43 43 44 45 45 46 46 47 47 47 48 49 49 50 50 51 52 52 53 53 52 51 51 50 50 50 50 51 52 52 52 52 52 52 53 53 54 53 53 53 54 54 54
42 43 43 43 44 44 45 46 46 47 47 48 48 48 48 49 49 50 50 50 50 49 49 49 48 48 48 49 49 49 50 50 51 51 51 51 51 51 51 51 51 51 52
42 42 43 43 43 44 44 45 45 46 46 46 46 46 46 47 47 47 47 48 48 48 48 48 47 47 47 47 47 48 48 48 49 49 49 49 49 49 49 49 49 49 49
42 42 43 43 44 44 44 44 44 44 44 44 44 44 44 45 45 45 45 45 46 46 46 46 46 46 46 46 46 47 47 48 48 48 47 47 47 47 47 47 47 47 47
42 42 43 43 43 43 43 43 43 43 42 42 42 43 43 43 43 43 43 43 43 43 43 44 45 45 46 46 45 46 46 46 46 46 46 46 45 45 45 45 45 45 45
43 43 43 43 42 42 42 42 41 41 41 41 41 41 41 41 41 41 41 41 41 41 42 42 43 43 43 44 44 44 44 44 45 44 44 44 44 44 44 44 44 43 43
43 43 42 42 42 41 41 40 40 40 40 40 40 40 40 40 40 40 40 40 41 41 41 41 42 42 42 43 43 43 43 43 43 43 43 42 42 41 41 41 41 41 41
42 41 40 40 40 40 41 40 40 40 40 40 40 40 40 40 40 40 40 41 41 42 42 42 42 42 41 41 41 41 41 41 41 41 41 41 40 40 39 39 39 39 39
40 40 39 39 39 40 40 40 40 40 40 40 40 39 39 39 40 40 41 41 41 42 42 42 41 41 40 40 40 39 39 39 38 39 39 39 38 37 38 38 38 38 37
40 39 39 39 39 40 39 39 39 39 39 39 39 39 40 40 40 40 40 40 40 40 40 40 40 39 39 38 38 38 37 36 36 36 36 36 36 35 36 35 35 35 35

GEFSGL_500_meanwind_372.txt.gz
Wind_Speed
44 45 45 47 47 48 48 49 49 49 49 49 50 50 51 52 52 53 54 54 55 55 55 56 57 58 59 59 61 61 62 62 61 60 60 60 62 62 62 63 63 62 62
46 46 46 47 48 49 50 50 50 50 51 51 52 52 52 52 53 53 54 55 55 56 57 58 58 60 60 60 60 62 62 63 63 62 60 60 61 61 62 62 63 63 64
47 47 48 48 49 50 51 51 51 51 52 53 53 54 55 55 55 55 55 56 56 57 58 59 60 61 61 62 62 63 63 63 65 65 63 62 62 61 61 62 62 63 65
47 48 48 49 49 49 50 51 52 52 53 54 54 55 55 56 56 57 57 57 57 57 58 59 60 61 61 62 62 63 64 64 64 65 65 65 64 64 64 63 63 63 65
47 48 48 49 49 50 50 51 52 53 53 54 55 56 57 57 57 57 58 58 59 59 59 60 60 60 60 61 62 63 63 63 63 64 64 64 65 65 64 64 63 64 64
47 48 48 49 50 50 51 51 52 53 54 55 56 57 57 57 58 58 59 59 60 60 60 61 61 62 61 62 62 62 62 63 63 63 63 64 64 64 65 65 65 65 64
46 47 48 49 50 50 51 51 52 54 55 55 56 57 57 57 58 58 59 59 60 60 61 61 61 61 62 63 63 63 62 63 63 63 63 63 63 64 65 65 65 64 64
46 47 48 49 50 50 51 52 53 53 55 55 56 56 57 57 57 57 58 59 59 60 60 61 61 62 63 63 63 63 63 63 63 63 63 63 63 63 64 64 64 64 63
46 46 47 48 49 50 50 52 53 54 55 56 56 56 56 57 57 57 58 59 59 59 60 60 61 62 62 64 64 63 63 63 63 63 63 63 63 63 63 64 63 63 63
46 46 47 47 48 49 51 52 53 53 54 55 55 56 56 56 56 57 58 58 59 59 59 60 60 61 61 62 63 63 62 62 62 62 62 62 62 63 63 63 63 63 62
46 46 47 47 48 49 50 51 52 52 53 53 54 54 54 54 55 56 56 57 58 58 58 59 59 60 60 60 61 61 61 61 61 61 62 62 62 62 62 62 63 63 62
46 46 47 48 48 49 50 51 52 52 52 53 53 53 53 54 55 55 56 56 56 56 57 58 58 59 59 60 60 60 60 61 61 61 62 62 61 61 62 62 63 63 62
46 46 47 48 48 49 50 50 51 52 52 52 52 52 52 52 53 54 54 54 54 55 55 56 57 58 59 59 60 60 60 61 61 61 61 61 61 61 61 62 63 63 63
46 46 47 47 48 49 50 50 50 50 50 50 50 51 51 51 51 52 52 52 51 52 53 54 55 56 57 58 58 59 60 60 61 61 61 61 61 61 61 61 62 63 62
46 47 48 48 49 49 49 49 49 49 49 49 49 49 50 50 51 51 50 50 50 51 52 53 53 54 55 56 57 57 58 58 59 60 60 60 60 61 61 61 61 61 61
46 47 48 48 48 49 49 48 49 49 49 49 49 49 49 49 50 50 50 50 50 50 51 51 52 53 53 54 54 55 55 56 56 58 58 59 59 59 59 59 59 59 59
46 47 47 47 47 48 48 47 48 48 48 48 49 49 49 49 50 50 50 50 50 50 49 49 50 50 51 51 52 53 52 53 53 54 55 55 55 55 55 55 55 55 55
46 47 47 47 47 47 47 47 47 47 47 47 47 48 48 48 48 48 48 49 49 48 47 47 48 48 48 49 49 50 50 50 50 50 50 51 51 50 50 51 51 52 52
47 47 47 47 47 47 47 47 47 46 46 46 46 47 47 47 47 47 47 48 48 47 46 46 46 46 46 46 46 46 47 47 47 47 47 47 47 48 48 49 49 49 50
47 47 47 46 46 46 46 46 46 46 46 46 46 46 46 46 47 47 47 47 46 46 45 45 44 44 44 44 44 44 44 45 45 45 45 45 45 45 45 45 45 46 46
47 47 47 46 46 45 45 45 45 45 45 45 45 45 45 45 45 45 45 45 45 44 44 44 44 43 42 42 42 42 42 43 43 43 43 43 43 43 43 44 43 43 43
46 46 46 46 45 45 45 44 44 44 44 43 43 43 43 44 44 44 43 43 43 43 42 42 42 41 41 41 41 41 41 42 42 42 42 43 43 43 43 43 42 42 42
44 45 45 44 44 44 43 43 43 43 42 42 42 42 42 42 42 42 43 42 42 41 41 41 41 41 40 41 41 41 41 41 41 41 41 42 42 42 42 42 41 41 41
43 43 42 42 42 42 42 42 42 41 41 41 41 40 40 41 41 41 41 41 42 41 41 41 41 40 40 40 40 40 40 40 41 41 40 41 41 41 40 40 40 40 40
42 42 41 40 40 40 40 40 39 39 39 39 39 39 39 39 39 40 40 40 40 40 40 40 40 40 40 40 39 39 40 40 40 40 39 39 39 39 39 38 38 38 38
41 40 40 39 39 39 38 38 37 37 37 37 37 37 37 38 38 38 38 39 39 39 39 39 39 39 39 39 39 38 38 38 39 39 38 38 37 37 37 37 36 36 36

GEFSGL_500_meanwind_378.txt.gz
Wind_Speed
44 45 45 45 45 46 46 46 46 47 48 48 50 51 52 52 52 53 52 53 53 53 54 54 53 54 55 55 55 56 56 57 57 56 57 58 58 58 58 59 60 61 60
44 45 46 46 46 46 47 47 48 48 48 48 48 50 51 52 53 54 53 53 53 53 54 55 55 56 56 57 57 57 57 58 58 58 58 59 59 60 60 60 61 61 61
44 45 46 46 47 47 48 49 49 49 49 49 49 49 51 52 53 54 54 54 54 54 55 55 56 57 58 58 58 58 58 59 59 59 59 60 60 61 61 61 61 62 61
44 45 46 47 47 48 49 49 50 50 51 51 51 51 51 52 53 54 55 55 55 56 56 57 57 58 59 58 58 58 59 60 60 60 59 59 60 61 62 62 62 63 63
45 45 45 46 47 48 49 49 50 50 52 52 53 53 52 52 52 53 55 55 55 56 56 57 58 58 58 58 58 58 59 60 61 61 61 61 61 62 63 63 63 63 63
44 45 45 46 47 48 49 50 50 51 52 52 53 53 54 54 53 54 55 56 56 57 56 57 58 57 58 58 58 58 59 60 61 62 62 62 63 63 63 63 63 63 62
43 45 45 46 47 49 50 50 51 51 52 53 53 53 53 54 55 55 55 57 57 58 58 57 57 58 58 58 58 58 59 60 60 61 61 61 62 62 62 63 63 63 63
44 45 46 46 47 48 49 50 51 52 53 54 54 54 54 55 56 56 56 57 58 58 59 59 58 58 58 59 59 59 59 59 60 61 61 61 62 62 62 63 63 63 63
44 45 46 46 47 48 49 50 51 52 53 54 55 55 56 56 57 58 58 57 58 58 59 59 59 58 57 58 59 59 59 59 60 61 61 62 62 62 62 63 62 63 62
45 45 46 47 48 49 50 51 52 52 53 54 54 55 56 56 57 58 59 58 58 59 59 59 59 58 58 58 59 59 59 60 60 61 62 62 61 62 62 63 63 63 63
46 47 48 48 49 50 51 52 52 53 54 54 54 55 55 56 56 57 58 58 58 58 58 58 58 58 59 59 60 60 60 60 61 61 61 61 61 62 62 62 63 63 62
48 48 49 50 50 51 51 52 53 53 54 54 55 55 55 56 56 56 56 56 57 57 57 58 58 58 59 60 61 61 61 61 61 61 62 61 61 61 61 61 61 62 62
49 50 50 50 51 51 52 52 53 53 54 54 55 55 55 55 55 55 55 55 56 57 57 57 58 58 59 60 61 62 62 62 62 61 61 61 61 61 61 61 61 61 61
50 50 50 50 51 51 52 52 53 54 54 54 54 55 55 54 54 54 55 56 56 57 57 58 58 58 59 60 60 60 61 61 61 61 61 60 60 60 60 60 60 60 60
50 50 50 51 51 51 52 53 53 54 55 54 54 54 54 54 54 55 55 56 56 56 56 56 56 57 57 57 58 58 58 59 59 59 59 59 59 59 59 59 59 59 59
49 50 50 50 51 52 52 53 53 54 54 55 54 54 54 54 54 55 55 55 55 55 55 55 55 55 56 55 55 56 56 57 57 57 57 57 57 56 56 56 57 57 56
49 49 50 50 51 51 52 52 53 53 54 54 54 54 54 54 53 53 54 54 54 54 54 54 54 54 54 53 53 54 54 54 54 54 54 54 54 54 53 54 54 54 53
48 49 49 50 51 51 52 52 53 52 52 52 52 52 52 52 52 52 53 53 53 53 52 52 51 52 52 51 51 51 50 50 50 50 50 50 50 50 50 50 50 50 50
48 49 50 50 50 50 51 52 52 52 51 51 50 51 51 51 51 51 51 51 50 50 49 49 49 49 49 49 49 48 48 47 47 46 46 45 45 46 46 46 46 46 47
49 49 50 50 50 50 50 50 51 51 50 50 49 49 49 49 48 48 48 47 47 47 47 47 47 47 46 46 46 46 45 45 44 44 43 43 43 43 44 44 44 44 44
48 48 48 48 49 49 48 48 49 49 49 49 47 47 46 46 46 45 45 45 45 45 44 44 44 45 45 44 44 43 43 43 43 43 42 42 41 42 42 42 42 43 43
46 46 46 47 47 47 47 47 47 47 47 46 46 45 45 44 44 43 43 43 43 43 43 42 43 43 42 42 42 42 42 42 41 41 41 41 41 41 41 41 41 41 41
45 45 45 45 45 45 45 45 44 44 43 43 43 43 42 42 41 41 42 41 41 41 41 41 41 41 41 41 41 41 40 40 40 40 40 40 40 41 40 40 39 39 39
45 45 45 44 44 44 43 43 42 41 41 40 40 40 40 40 40 40 40 39 40 40 39 39 39 39 39 39 40 40 40 39 39 39 39 39 39 39 39 39 38 38 37
44 44 43 43 43 42 41 40 40 39 39 38 38 37 37 37 37 37 37 37 38 38 38 37 37 36 36 37 37 37 37 37 37 37 37 37 37 37 37 37 36 36 36
42 42 41 41 41 40 40 39 38 38 37 37 36 36 36 35 35 35 35 36 36 36 36 36 36 36 35 36 36 36 36 36 36 36 36 35 35 35 35 35 35 35 35

GEFSGL_500_meanwind_384.txt.gz
Wind_Speed
42 44 44 45 45 47 48 48 50 51 50 50 49 50 50 50 51 52 53 53 53 54 54 55 55 55 55 56 56 56 57 57 57 56 56 56 56 56 57 58 58 58 58
43 43 44 45 46 47 48 49 49 50 51 51 50 50 50 51 51 51 52 53 54 54 55 55 56 56 56 57 57 57 58 59 59 59 59 58 58 58 59 60 60 60 60
43 44 44 45 46 46 48 49 50 50 51 51 51 51 51 51 52 52 52 53 53 54 55 56 56 57 57 57 57 58 58 59 59 60 60 60 60 61 61 61 61 61 60
44 45 45 46 47 47 48 49 50 51 52 52 52 52 52 53 53 53 53 53 53 54 55 56 56 57 57 58 57 58 58 58 59 59 59 60 61 61 62 63 63 62 61
45 45 46 47 48 48 49 49 50 51 52 52 53 53 53 54 54 54 55 55 56 56 57 57 58 58 58 58 58 58 59 59 59 59 60 60 61 61 63 64 64 63 63
44 45 46 47 48 49 50 51 51 52 53 53 54 55 55 55 56 56 56 57 57 58 58 59 59 59 59 59 59 59 59 59 60 61 61 61 61 62 63 63 64 64 64
44 45 46 48 49 50 50 51 52 53 54 55 55 56 57 57 57 57 57 57 58 58 58 59 59 59 59 59 60 60 60 61 61 61 61 61 62 62 63 64 64 64 63
44 45 46 47 49 50 51 51 52 53 54 55 56 57 58 58 58 58 59 59 59 59 59 59 59 59 59 59 61 61 60 60 61 62 62 62 62 62 62 62 62 63 63
44 45 46 47 48 49 50 51 52 53 54 55 56 57 58 58 59 59 60 60 60 59 59 60 60 59 59 60 61 61 61 60 60 61 61 61 61 61 62 62 63 63 63
44 45 46 47 48 49 50 51 52 53 54 55 56 57 57 58 58 59 59 60 60 60 60 60 60 60 60 60 61 61 61 60 60 60 60 60 61 61 62 62 63 64 64
45 45 46 47 48 49 50 51 52 53 53 54 55 56 57 58 58 59 59 60 60 60 60 60 59 59 59 60 61 61 61 61 61 61 61 61 62 62 62 62 63 63 63
46 47 47 48 49 49 50 51 51 52 53 54 55 55 56 57 58 58 59 59 59 59 59 60 60 60 60 60 60 61 61 61 61 61 62 61 62 62 62 62 62 63 62
47 47 48 49 50 50 51 51 52 52 53 53 54 54 55 56 57 58 58 59 58 59 59 59 59 60 60 59 60 60 60 60 60 60 61 61 61 61 62 62 62 62 62
47 47 48 49 50 51 51 52 52 52 53 53 53 54 54 55 56 57 58 58 58 58 58 58 58 58 58 58 58 58 58 59 60 60 60 60 61 61 61 61 61 62 61
46 47 48 48 49 50 51 51 52 52 53 53 54 54 55 55 56 57 57 58 58 57 57 57 57 57 57 56 57 57 58 58 59 59 59 59 59 59 59 59 60 60 61
46 46 46 47 47 48 49 50 51 52 52 52 53 54 55 55 56 56 56 56 56 56 56 56 56 55 55 55 55 56 56 57 57 58 58 57 57 57 57 57 57 58 58
45 45 46 46 47 47 48 49 49 50 50 51 52 53 53 54 54 54 55 55 54 54 54 54 54 54 54 54 55 55 55 55 55 55 56 56 56 55 55 55 55 55 55
45 45 46 46 46 47 47 48 48 49 49 50 50 51 51 52 52 52 52 52 52 53 53 53 53 53 53 54 54 54 54 54 54 54 54 54 54 54 53 53 52 52 52
44 45 45 45 46 46 46 47 47 48 48 49 49 49 50 50 50 50 50 50 50 50 51 51 51 52 52 52 52 52 53 53 53 53 53 52 52 52 51 51 50 50 50
44 44 45 45 45 45 45 46 47 47 48 48 48 48 48 48 48 48 48 48 48 48 48 48 48 48 49 49 49 50 50 50 50 50 50 50 50 50 49 49 49 48 48
44 44 44 44 45 45 46 46 46 46 46 46 46 46 46 46 46 46 46 46 46 45 45 45 45 46 46 46 46 46 47 47 47 47 48 48 48 48 47 47 46 46 45
44 45 45 45 46 46 46 46 46 45 45 45 45 45 45 44 44 44 43 43 43 43 43 43 43 43 43 44 44 44 44 44 45 45 45 45 46 46 45 45 44 44 43
45 45 45 46 46 45 45 45 45 44 44 43 43 42 42 42 42 41 41 41 41 41 41 41 41 41 42 42 43 43 42 42 42 43 43 43 44 44 43 42 42 42 41
44 44 44 44 44 44 43 43 42 42 41 41 41 40 40 40 39 39 39 39 39 40 39 39 39 39 40 40 40 40 40 40 40 40 40 41 41 41 40 40 39 39 39
42 43 42 42 42 41 41 40 40 40 40 39 39 39 38 38 37 38 38 38 38 37 37 37 38 38 38 38 38 38 38 38 38 38 38 38 38 38 38 38 37 37 36
41 41 41 40 40 40 40 39 39 39 38 38 37 37 36 36 36 36 36 36 36 36 35 36 36 37 37 37 37 37 37 37 37 36 36 36 36 36 36 36 35 35 35